KB1GNF Weather Reports


Display with metric or nautical units.
time (UTC)temp
F
wind
direction
speed
MPH
gust
MPH
rain 1hr
in
rain 24hr
in
rain mn
in
humidity
%
barometer
mb
20260510182505 66 314 0.0 4.0 0.00 0.21 0.03 72 1011.1
20260510182003 67 3 2.0 7.0 0.00 0.22 0.03 72 1011.1
20260510181510 67 354 2.0 7.0 0.00 0.22 0.03 70 1011.0
20260510181004 68 149 1.0 8.0 0.00 0.23 0.03 69 1011.0
20260510180504 69 185 4.0 8.0 0.00 0.23 0.03 68 1010.9
20260510180006 70 193 5.0 10.0 0.00 0.23 0.03 66 1011.0
20260510175504 70 158 3.0 10.0 0.00 0.24 0.03 68 1011.0
20260510175006 70 95 3.0 9.0 0.00 0.24 0.03 71 1011.1
20260510174509 70 248 2.0 9.0 0.00 0.25 0.03 71 1011.1
20260510174007 69 217 2.0 6.0 0.00 0.26 0.03 69 1011.1
20260510173503 68 143 2.0 6.0 0.00 0.26 0.03 73 1011.2
20260510173004 67 131 3.0 7.0 0.00 0.27 0.03 72 1011.3
20260510172507 67 184 3.0 10.0 0.00 0.28 0.03 73 1011.4
20260510172008 66 197 5.0 12.0 0.00 0.28 0.03 74 1011.5
20260510171507 66 234 6.0 12.0 0.00 0.29 0.03 73 1011.5
20260510171004 66 252 4.0 9.0 0.00 0.29 0.03 74 1011.6
20260510170504 66 186 4.0 9.0 0.00 0.30 0.03 75 1011.6
20260510170006 65 159 3.0 7.0 0.00 0.31 0.03 76 1011.6
20260510165505 65 238 5.0 8.0 0.00 0.31 0.03 75 1011.7
20260510165004 65 162 4.0 8.0 0.00 0.32 0.03 76 1011.8
20260510164508 65 289 4.0 8.0 0.00 0.33 0.03 74 1012.0
20260510164007 65 234 2.0 7.0 0.00 0.34 0.03 73 1011.9
20260510163504 66 233 4.0 8.0 0.00 0.34 0.03 74 1011.9
20260510163009 65 159 4.0 9.0 0.00 0.35 0.03 73 1011.9
20260510161508 64 204 5.0 12.0 0.00 0.38 0.03 76 1011.9
20260510161004 64 207 7.0 10.0 0.00 0.39 0.03 76 1012.0
20260510160505 64 143 3.0 11.0 0.00 0.39 0.03 78 1012.0
20260510160009 63 209 4.0 11.0 0.00 0.40 0.03 78 1011.9
20260510155509 63 157 6.0 11.0 0.00 0.40 0.03 77 1012.0
20260510155004 63 203 5.0 11.0 0.00 0.41 0.03 80 1012.1
20260510154510 62 178 5.0 9.0 0.00 0.41 0.03 78 1012.2
20260510154008 62 177 2.0 9.0 0.00 0.42 0.03 82 1012.3
20260510153507 61 224 4.0 11.0 0.00 0.42 0.03 79 1012.2
20260510153010 61 276 5.0 11.0 0.00 0.43 0.03 81 1012.3
20260510152004 60 228 5.0 9.0 0.00 0.44 0.03 81 1012.2
20260510151004 60 165 2.0 7.0 0.00 0.44 0.03 84 1012.1
20260510150505 59 228 4.0 10.0 0.00 0.45 0.03 84 1012.2
20260510150012 59 233 5.0 10.0 0.00 0.45 0.03 83 1012.1
20260510145506 59 176 5.0 10.0 0.00 0.46 0.03 85 1012.1
20260510145005 58 161 5.0 8.0 0.00 0.47 0.03 85 1012.1
20260510144511 58 240 2.0 7.0 0.00 0.47 0.03 87 1012.1
20260510144006 57 245 2.0 9.0 0.00 0.47 0.03 87 1012.2
20260510143504 57 216 4.0 9.0 0.00 0.48 0.03 87 1012.3
20260510143015 57 147 3.0 7.0 0.00 0.48 0.03 88 1012.4
20260510142507 56 195 3.0 7.0 0.00 0.49 0.03 88 1012.4
20260510142010 56 135 3.0 7.0 0.00 0.49 0.03 89 1012.4
20260510140504 55 198 4.0 7.0 0.00 0.49 0.03 91 1012.4
20260510134515 54 164 3.0 8.0 0.00 0.50 0.03 91 1012.4
20260510134005 54 212 2.0 8.0 0.00 0.50 0.03 91 1012.2
20260510133505 54 196 4.0 7.0 0.00 0.50 0.03 92 1012.2
20260510133020 54 196 4.0 11.0 0.00 0.50 0.03 92 1012.2
20260510132505 53 195 5.0 11.0 0.00 0.50 0.03 93 1012.3
20260510132005 53 163 3.0 6.0 0.00 0.51 0.03 93 1012.3
20260510131518 53 184 3.0 7.0 0.00 0.51 0.03 93 1012.3
20260510131007 53 197 3.0 7.0 0.00 0.51 0.03 93 1012.3
20260510130506 53 217 4.0 7.0 0.00 0.51 0.03 93 1012.3
20260510130017 53 205 3.0 7.0 0.00 0.51 0.03 94 1012.3
20260510125504 53 226 2.0 5.0 0.00 0.51 0.03 94 1012.3
20260510125007 53 214 1.0 5.0 0.00 0.51 0.03 94 1012.1
20260510124515 53 198 1.0 4.0 0.00 0.51 0.03 94 1012.0
20260510124007 53 159 1.0 5.0 0.00 0.51 0.03 94 1011.9
20260510123018 52 213 2.0 5.0 0.00 0.52 0.03 94 1012.1
20260510122505 52 219 2.0 4.0 0.00 0.52 0.03 94 1012.1
20260510122007 52 199 1.0 2.0 0.00 0.52 0.03 95 1012.2
20260510121516 52 145 0.0 2.0 0.00 0.52 0.03 95 1012.2
20260510121007 52 212 1.0 2.0 0.00 0.52 0.03 95 1012.2
20260510120508 52 219 0.0 3.0 0.00 0.52 0.03 95 1012.2
20260510120030 52 199 1.0 5.0 0.00 0.52 0.03 95 1012.2
20260510115511 52 153 1.0 5.0 0.00 0.52 0.03 95 1012.2
20260510115007 52 123 0.0 4.0 0.00 0.52 0.03 95 1012.2
20260510114518 52 105 1.0 6.0 0.00 0.52 0.03 95 1012.1
20260510114008 52 210 2.0 6.0 0.00 0.52 0.03 95 1012.2
20260510113506 52 180 3.0 6.0 0.00 0.52 0.03 95 1012.3
20260510112513 52 172 1.0 2.0 0.00 0.54 0.03 95 1012.1
20260510112007 52 198 0.0 4.0 0.00 0.55 0.03 95 1012.0
20260510111517 51 226 1.0 5.0 0.00 0.55 0.03 95 1012.0
20260510111009 51 156 2.0 5.0 0.00 0.55 0.03 95 1011.9
20260510110508 51 195 2.0 5.0 0.00 0.56 0.03 96 1012.0
20260510110024 51 219 1.0 4.0 0.00 0.56 0.03 96 1011.8
20260510105503 51 244 2.0 4.0 0.00 0.56 0.03 96 1011.7
20260510105005 51 234 1.0 4.0 0.00 0.56 0.03 96 1011.5
20260510104004 51 155 1.0 2.0 0.00 0.56 0.03 96 1011.5
20260510103505 51 279 0.0 3.0 0.00 0.56 0.03 96 1011.4
20260510103016 51 152 0.0 3.0 0.00 0.56 0.03 96 1011.4
20260510102503 51 148 0.0 2.0 0.00 0.56 0.03 96 1011.3
20260510102003 51 155 0.0 2.0 0.00 0.56 0.03 96 1011.3
20260510101502 51 139 0.0 2.0 0.00 0.56 0.03 96 1011.2
20260510101002 51 86 0.0 2.0 0.00 0.56 0.03 96 1011.2
20260510100502 51 134 0.0 3.0 0.00 0.56 0.03 96 1011.1
20260510100004 51 165 1.0 3.0 0.00 0.56 0.03 96 1010.8
20260510095504 51 157 1.0 3.0 0.00 0.56 0.03 96 1011.1
20260510095003 51 195 1.0 2.0 0.00 0.56 0.03 96 1011.1
20260510094521 51 222 0.0 3.0 0.00 0.56 0.03 96 1010.9
20260510094007 51 162 0.0 3.0 0.00 0.56 0.03 96 1010.6
20260510093504 51 162 0.0 3.0 0.00 0.56 0.03 96 1010.4
20260510093013 51 143 1.0 3.0 0.00 0.56 0.03 96 1010.5
20260510092506 51 158 1.0 7.0 0.00 0.56 0.03 97 1010.7
20260510092005 51 160 2.0 8.0 0.00 0.56 0.03 97 1010.4
20260510091520 51 153 5.0 8.0 0.00 0.56 0.03 97 1010.4
20260510091002 50 216 3.0 6.0 0.00 0.56 0.03 97 1010.5
20260510090503 50 173 2.0 6.0 0.00 0.56 0.03 97 1010.6
20260510090004 50 175 3.0 5.0 0.00 0.56 0.03 97 1010.6
20260510085502 50 167 2.0 5.0 0.00 0.56 0.03 97 1010.4
20260510085004 50 171 2.0 7.0 0.00 0.56 0.03 97 1010.8
20260510084504 51 207 4.0 7.0 0.00 0.56 0.03 97 1010.9
20260510084004 51 143 2.0 6.0 0.00 0.56 0.03 97 1010.9
20260510083506 51 192 2.0 7.0 0.00 0.56 0.03 97 1010.9
20260510083009 51 213 3.0 7.0 0.00 0.56 0.03 97 1010.9
20260510082504 51 121 2.0 7.0 0.00 0.56 0.03 97 1011.0
20260510082006 51 241 3.0 6.0 0.00 0.56 0.03 97 1011.2
20260510081512 50 199 3.0 7.0 0.00 0.56 0.03 98 1011.2
20260510081005 50 229 2.0 7.0 0.00 0.56 0.03 98 1011.2
20260510080506 50 196 3.0 6.0 0.00 0.56 0.03 98 1011.2
20260510080017 50 212 2.0 5.0 0.00 0.56 0.03 98 1011.2
20260510075511 50 177 2.0 5.0 0.00 0.56 0.03 98 1011.0
20260510075002 49 201 1.0 2.0 0.00 0.56 0.03 97 1011.0
20260510074004 49 94 0.0 0.0 0.00 0.56 0.03 97 1011.0
20260510073503 49 94 0.0 0.0 0.00 0.56 0.03 97 1010.8
20260510073006 49 94 0.0 0.0 0.00 0.56 0.03 97 1010.9
20260510072005 49 94 0.0 0.0 0.00 0.56 0.03 97 1010.9
20260510071510 49 94 0.0 0.0 0.00 0.56 0.03 97 1010.8
20260510071007 49 95 0.0 0.0 0.00 0.56 0.03 97 1010.7
20260510070505 49 146 0.0 0.0 0.00 0.56 0.03 97 1010.7
20260510070014 49 117 0.0 0.0 0.00 0.56 0.03 97 1010.7
20260510065506 49 176 0.0 0.0 0.00 0.56 0.03 97 1010.6
20260510065007 49 156 0.0 0.0 0.00 0.56 0.03 97 1010.6
20260510064519 49 167 0.0 1.0 0.00 0.56 0.03 97 1010.6
20260510064012 49 165 0.0 1.0 0.00 0.56 0.03 97 1010.5
20260510062503 49 75 0.0 3.0 0.00 0.56 0.03 97 1010.4
20260510061508 49 107 1.0 3.0 0.00 0.56 0.03 97 1010.7
20260510061005 49 105 0.0 1.0 0.00 0.56 0.03 97 1010.9
20260510060025 49 193 0.0 2.0 0.00 0.56 0.03 97 1011.0
20260510055505 49 204 0.0 0.0 0.00 0.56 0.03 97 1010.9
20260510055009 49 198 0.0 0.0 0.00 0.56 0.03 97 1010.8
20260510054516 49 198 0.0 0.0 0.00 0.56 0.03 97 1010.7
20260510053020 49 198 0.0 0.0 0.00 0.56 0.03 97 1010.8
20260510052510 49 198 0.0 0.0 0.01 0.56 0.03 97 1010.9
20260510052010 49 198 0.0 0.0 0.01 0.56 0.03 97 1010.8
20260510051505 49 198 0.0 0.0 0.02 0.56 0.03 97 1010.8
20260510050007 49 198 0.0 0.0 0.03 0.56 0.03 97 1010.7
20260510045004 49 177 0.0 2.0 0.03 0.56 0.03 97 1011.0
20260510044514 49 207 0.0 2.0 0.03 0.56 0.03 97 1011.0
20260510044004 49 174 0.0 0.0 0.03 0.56 0.03 97 1011.1
20260510043019 49 109 0.0 0.0 0.03 0.56 0.03 97 1011.0
20260510042009 49 105 0.0 0.0 0.02 0.55 0.02 97 1011.0
20260510041529 49 104 0.0 0.0 0.01 0.54 0.01 97 1011.0
20260510041014 49 117 0.0 0.0 0.01 0.54 0.01 97 1011.1
20260510040511 49 106 0.0 0.0 0.00 0.52 0.00 97 1011.0
20260510040007 49 101 0.0 0.0 0.00 0.52 0.00 97 1011.0
20260510035007 49 214 0.0 0.0 0.00 0.52 0.52 97 1011.0
20260510034512 49 214 0.0 0.0 0.00 0.52 0.52 97 1010.9
20260510034003 48 214 0.0 0.0 0.00 0.52 0.52 97 1010.9
20260510033014 48 145 0.0 0.0 0.00 0.52 0.52 97 1010.9
20260510032009 48 146 0.0 0.0 0.00 0.52 0.52 97 1010.8
20260510031518 48 146 0.0 0.0 0.00 0.52 0.52 97 1010.8
20260510030021 48 146 0.0 0.0 0.00 0.52 0.52 97 1011.1
20260510025511 48 146 0.0 0.0 0.00 0.52 0.52 97 1011.0
20260510025014 48 146 0.0 0.0 0.00 0.52 0.52 97 1011.1
20260510024528 48 145 0.0 0.0 0.00 0.52 0.52 97 1011.1
20260510023030 48 146 0.0 0.0 0.00 0.52 0.52 97 1011.2
20260510021519 48 146 0.0 0.0 0.00 0.52 0.52 97 1011.6
20260510020508 48 146 0.0 0.0 0.00 0.52 0.52 97 1011.6
20260510020020 48 158 0.0 1.0 0.00 0.52 0.52 97 1011.8
20260510015509 48 158 0.0 1.0 0.00 0.52 0.52 97 1011.8
20260510014523 48 139 0.0 0.0 0.00 0.52 0.52 97 1011.9
20260510014010 48 103 0.0 1.0 0.00 0.52 0.52 97 1011.8
20260510013511 48 103 0.0 1.0 0.00 0.52 0.52 96 1011.6
20260510013027 48 103 0.0 1.0 0.00 0.52 0.52 96 1011.4
20260510011520 48 18 0.0 1.0 0.00 0.52 0.52 96 1011.6
20260510011012 48 18 0.0 0.0 0.00 0.52 0.52 96 1011.5
20260510010506 48 18 0.0 0.0 0.00 0.52 0.52 96 1011.4
20260510010025 48 18 0.0 1.0 0.00 0.52 0.52 96 1011.2
20260510004524 48 355 0.0 2.0 0.00 0.52 0.52 96 1011.0
20260510003027 49 351 0.0 1.0 0.00 0.52 0.52 96 1010.9
20260510002508 49 133 0.0 1.0 0.00 0.52 0.52 96 1010.9
20260510002011 49 133 0.0 1.0 0.00 0.52 0.52 96 1010.9
20260510001528 49 133 0.0 1.0 0.00 0.52 0.52 96 1010.8
20260510001012 49 133 0.0 2.0 0.00 0.52 0.52 96 1010.8
20260510000016 49 150 1.0 2.0 0.00 0.52 0.52 96 1010.8
20260509234011 49 186 0.0 0.0 0.00 0.52 0.52 96 1011.0
20260509233022 49 101 0.0 0.0 0.00 0.52 0.52 96 1010.8
20260509232006 49 101 0.0 0.0 0.00 0.52 0.52 96 1010.9
20260509231508 49 101 0.0 0.0 0.00 0.52 0.52 96 1010.8
20260509224519 49 98 0.0 0.0 0.00 0.52 0.52 95 1010.8
20260509224010 49 98 0.0 0.0 0.00 0.52 0.52 96 1010.8
20260509223511 49 97 0.0 0.0 0.00 0.52 0.52 95 1010.8
20260509223004 49 88 0.0 0.0 0.00 0.52 0.52 95 1010.8
20260509220505 49 92 0.0 0.0 0.01 0.52 0.52 95 1010.6
20260509215505 49 88 0.0 0.0 0.01 0.52 0.52 95 1010.7
20260509214007 48 23 0.0 0.0 0.02 0.52 0.52 95 1010.7
20260509213505 48 18 0.0 0.0 0.02 0.52 0.52 95 1010.9
20260509212508 48 18 0.0 4.0 0.03 0.52 0.52 95 1011.1
20260509204007 48 96 1.0 2.0 0.07 0.51 0.51 95 1011.6
20260509203506 48 166 0.0 1.0 0.08 0.51 0.51 95 1011.8
20260509202509 48 231 0.0 2.0 0.09 0.50 0.50 95 1012.0
20260509200507 48 32 0.0 0.0 0.09 0.48 0.48 95 1011.8
20260509200025 48 32 0.0 0.0 0.09 0.47 0.47 95 1011.7
20260509195004 47 352 0.0 0.0 0.08 0.45 0.45 95 1011.9
20260509194510 47 352 0.0 0.0 0.08 0.44 0.44 95 1011.9
20260509193506 48 352 0.0 0.0 0.08 0.43 0.43 95 1011.9
20260509193013 48 352 0.0 0.0 0.07 0.42 0.42 95 1012.0
20260509192506 47 352 0.0 0.0 0.06 0.41 0.41 95 1012.1
20260509192008 47 352 0.0 0.0 0.07 0.41 0.41 95 1012.1
20260509191520 47 352 0.0 0.0 0.06 0.40 0.40 95 1012.1
20260509191011 47 354 0.0 2.0 0.06 0.39 0.39 95 1012.1
20260509190509 47 351 0.0 2.0 0.06 0.39 0.39 94 1012.1
20260509185508 47 336 0.0 1.0 0.05 0.37 0.37 94 1012.1
20260509184525 47 338 0.0 1.0 0.05 0.36 0.36 95 1012.2
20260509184003 47 345 0.0 1.0 0.06 0.36 0.36 95 1012.2
20260509183503 47 353 0.0 0.0 0.05 0.35 0.35 95 1012.3
20260509183018 47 353 0.0 0.0 0.06 0.35 0.35 95 1012.3